Home   Weather   Panama City   Past weeks

Flag for USA Past Weather in Panama City, Florida, USA — Yesterday and Last 2 Weeks

Now
82 °F

Passing clouds.


Feels Like: 88 °F
Forecast: 72 / 85 °F
Wind: 8 mph from West

Location: Tyndall Air Force Base

Current Time: Sep 28, 2016 at 10:21:52 PM

Latest Report: Sep 28, 2016 at 9:56 PM


Visibility: 10 mi

Pressure: 29.99 "Hg

Humidity: 76%

Dew Point: 74 °F

Location of Panama CityLocation

Past Weather in Panama City — Graph

°F

Panama City Temperature Yesterday

Maximum temperature yesterday: 86 °F (at 12:01 PM)
Minimum temperature yesterday: 71 °F (at 3:56 AM)
Average temperature yesterday: 79 °F

High & Low Weather Summary for the Past Weeks

 TemperatureHumidityPressure
High91 °F (Sep 21, 2:56 PM)100% (Sep 17, 5:59 AM)30.09 "Hg (Sep 17, 5:59 AM)
Low71 °F (Sep 27, 3:56 AM)48% (Sep 21, 2:56 PM)29.90 "Hg (Sep 27, 4:56 PM)
Average80 °F82%30.00 "Hg
* Reported Sep 13 8:56 PM — Sep 28 8:56 PM, Panama City, Weather by CustomWeather, © 2016

Note: Actual official high and low records may vary slightly from our data, if they occured in-between our weather recording intervals... More about our weather records

Advertising

Panama City Weather History for the Previous 24 Hours

Scroll right to see more
 ConditionsComfort  
Time TempWeatherWind HumidityBarometerVisibility
8:56 PM
Wed, Sep 28
82 °FPassing clouds.9 mph75%29.98 "Hg10 mi
8:01 PM82 °FPassing clouds.7 mph74%29.96 "Hg10 mi
7:56 PM82 °FPassing clouds.6 mph76%29.98 "Hg10 mi
6:56 PM82 °FPassing clouds.5 mph74%29.96 "Hg10 mi
5:56 PM84 °FPassing clouds.12 mph75%29.95 "Hg10 mi
4:56 PM85 °FSunny.12 mph66%29.94 "Hg10 mi
3:56 PM86 °FPassing clouds.12 mph70%29.94 "Hg10 mi
2:56 PM87 °FPassing clouds.12 mph68%29.95 "Hg10 mi
1:56 PM86 °FScattered clouds.10 mph70%29.95 "Hg10 mi
12:56 PM85 °FScattered clouds.9 mph72%29.97 "Hg10 mi
11:56 AM84 °FPassing clouds.6 mph73%29.99 "Hg10 mi
10:56 AM84 °FScattered clouds.6 mph74%30.00 "Hg10 mi
9:56 AM82 °FWarm.No wind78%29.99 "Hg10 mi
8:57 AM77 °FThunderstorms. Scattered clouds.3 mph89%29.98 "Hg10 mi
8:56 AM76 °FLight rain. Scattered clouds.3 mph93%29.99 "Hg10 mi
7:56 AM77 °FThunderstorms. Scattered clouds.No wind91%29.97 "Hg10 mi
6:56 AM77 °FThunderstorms. Broken clouds.5 mph93%29.95 "Hg10 mi
5:55 AM77 °FPartly sunny.No wind91%29.94 "Hg10 mi
4:56 AM74 °FClear.No wind93%29.92 "Hg10 mi
3:56 AM74 °FPassing clouds.No wind91%29.92 "Hg10 mi
2:56 AM76 °FPassing clouds.No wind85%29.92 "Hg10 mi
2:01 AM77 °FPassing clouds.No wind79%29.92 "Hg10 mi
1:56 AM77 °FPassing clouds.No wind80%29.93 "Hg10 mi
12:56 AM76 °FPassing clouds.No wind88%29.94 "Hg10 mi
11:56 PM
Tue, Sep 27
81 °FClear.3 mph75%29.94 "Hg10 mi
10:56 PM81 °FPassing clouds.5 mph75%29.95 "Hg10 mi
Weather by CustomWeather, © 2016

See weather overviewHow to use our weather pages